San Diego Brown, CA

6:27 AM PDT on July 21, 2017 (GMT -0700)
Brown Municipal

Weather History for KSDM - November, 2013

Change the Weather History Date:

Saturday, November 16, 2013

  Actual Average Record
Temperature  
Mean Temperature 60 °F 58 °F  
Max Temperature 66 °F 71 °F 91 °F (2008)
Min Temperature 55 °F 46 °F 38 °F (1958)
Degree Days  
Heating Degree Days 4 7  
Month to date heating degree days 88  
Since 1 July heating degree days 153  
Cooling Degree Days 0 0  
Month to date cooling degree days 12  
Year to date cooling degree days 620  
Growing Degree Days 10 (Base 50)    
Moisture  
Dew Point 48 °F    
Average Humidity 70    
Maximum Humidity 90    
Minimum Humidity 40    
Precipitation  
Precipitation 0.00 in 0.04 in 0.42 in (1957)
Month to date precipitation 0.53  
Year to date precipitation 9.83  
Sea Level Pressure  
Sea Level Pressure 29.87 in    
Wind  
Wind Speed 5 mph (SSW)    
Max Wind Speed 16 mph    
Max Gust Speed 20 mph    
Visibility 10 miles    
Events      
T = Trace of Precipitation, MM = Missing Value Source: NWS Daily Summary

Daily Weather History Graph

Daily Weather History Graph

Search for Another Location

Airport or City:

Trip Planner

Search our weather history database for the weather conditions in past years. The results will help you decide how hot, cold, wet, or windy it might be!

Date:

Astronomy

Nov. 16, 2013 Rise Set
Actual Time 6:18 AM PST 4:46 PM PST
Civil Twilight 5:52 AM PST 5:12 PM PST
Nautical Twilight 5:22 AM PST 5:42 PM PST
Astronomical Twilight 4:53 AM PST 6:11 PM PST
Moon 4:22 PM PST (11/16) 5:22 AM PST (11/16)
Length of Visible Light 11h 19m
Length of Day
10h 27m
Waxing Gibbous, 99% of the Moon is Illuminated
Nov 16
Waxing Gibbous
Nov 17
Full
Nov 25
Last Quarter
Dec 2
New
Dec 9
First Quarter

Hourly Weather History & Observations

Time (PST) Temp. Dew Point Humidity Pressure Visibility Wind Dir Wind Speed Gust Speed Precip Events Conditions
12:53 AM 55.0 °F 51.1 °F 86% 29.79 in 10.0 mi Calm Calm - N/A   Mostly Cloudy
1:53 AM 55.0 °F 52.0 °F 89% 29.80 in 10.0 mi South 3.5 mph - N/A   Mostly Cloudy
2:53 AM 55.9 °F 53.1 °F 90% 29.80 in 10.0 mi South 4.6 mph - N/A   Overcast
3:53 AM 57.0 °F 52.0 °F 83% 29.80 in 10.0 mi SSE 5.8 mph - N/A   Overcast
4:53 AM 57.0 °F 50.0 °F 77% 29.82 in 10.0 mi SW 4.6 mph - 0.00 in   Overcast
5:09 AM 55.4 °F 50.0 °F 82% 29.83 in 10.0 mi WSW 4.6 mph - N/A   Overcast
5:53 AM 55.0 °F 48.9 °F 80% 29.83 in 10.0 mi SSW 3.5 mph - N/A   Mostly Cloudy
6:53 AM 55.0 °F 48.9 °F 80% 29.84 in 10.0 mi SSE 3.5 mph - N/A   Scattered Clouds
7:37 AM 57.2 °F 51.8 °F 82% 29.86 in 10.0 mi SE 3.5 mph - N/A   Mostly Cloudy
7:53 AM 57.9 °F 51.1 °F 78% 29.87 in 10.0 mi Calm Calm - N/A   Overcast
8:00 AM 57.2 °F 51.8 °F 82% 29.87 in 10.0 mi Calm Calm - N/A   Overcast
8:53 AM 60.1 °F 48.9 °F 67% 29.89 in 10.0 mi SW 3.5 mph - N/A   Overcast
9:09 AM 60.8 °F 48.2 °F 63% 29.89 in 10.0 mi WSW 5.8 mph - N/A   Overcast
9:53 AM 61.0 °F 48.0 °F 62% 29.90 in 10.0 mi SSW 6.9 mph - N/A   Overcast
10:53 AM 63.0 °F 45.0 °F 52% 29.90 in 10.0 mi SW 10.4 mph - N/A   Overcast
11:53 AM 66.0 °F 42.1 °F 42% 29.86 in 10.0 mi SSW 12.7 mph 19.6 mph N/A   Mostly Cloudy
12:53 PM 66.0 °F 41.0 °F 40% 29.84 in 10.0 mi SSW 16.1 mph - N/A   Scattered Clouds
1:53 PM 64.9 °F 48.0 °F 54% 29.84 in 10.0 mi SW 12.7 mph 17.3 mph N/A   Partly Cloudy
2:53 PM 61.0 °F 46.9 °F 60% 29.86 in 10.0 mi SW 10.4 mph - N/A   Overcast
3:53 PM 60.1 °F 46.0 °F 60% 29.87 in 10.0 mi WSW 8.1 mph - N/A   Overcast
4:53 PM 60.1 °F 46.0 °F 60% 29.88 in 10.0 mi WSW 6.9 mph - N/A   Overcast
5:53 PM 57.9 °F 46.0 °F 65% 29.89 in 10.0 mi Calm Calm - N/A   Overcast
6:53 PM 55.9 °F 46.0 °F 69% 29.90 in 10.0 mi SSW 4.6 mph - N/A   Mostly Cloudy
7:53 PM 57.0 °F 48.0 °F 72% 29.91 in 10.0 mi SSE 4.6 mph - N/A   Overcast
8:53 PM 57.0 °F 48.0 °F 72% 29.94 in 10.0 mi SE 4.6 mph - N/A   Overcast
9:53 PM 57.9 °F 48.0 °F 70% 29.94 in 10.0 mi SE 5.8 mph - N/A   Overcast
10:53 PM 57.9 °F 46.9 °F 67% 29.94 in 10.0 mi SE 6.9 mph - N/A   Overcast
11:53 PM 57.0 °F 48.0 °F 72% 29.95 in 10.0 mi SSE 5.8 mph - N/A   Overcast